CW6404 Weather Reports


time (UTC)temp
F
wind
direction
speed
knots
gust
knots
rain 1hr
in
rain 24hr
in
rain mn
in
humidity
%
barometer
mb
20260505035833 63 157 0.0 2.6 0.00 0.00 0.00 67 1009.5
20260505035330 63 172 0.0 3.5 0.00 0.00 0.00 66 1009.6
20260505034827 63 165 0.0 3.5 0.00 0.00 0.00 66 1009.5
20260505034310 63 169 0.9 5.2 0.00 0.00 0.00 66 1009.4
20260505033815 63 161 0.0 5.2 0.00 0.00 0.00 65 1009.4
20260505033312 63 180 0.0 1.7 0.00 0.00 0.00 65 1009.4
20260505032758 63 162 0.0 1.7 0.00 0.00 0.00 64 1009.4
20260505032257 63 187 0.0 0.9 0.00 0.00 0.00 64 1009.3
20260505031750 63 165 0.0 2.6 0.00 0.00 0.00 63 1009.3
20260505031229 63 169 0.0 2.6 0.00 0.00 0.00 63 1009.4
20260505030731 63 174 0.0 1.7 0.00 0.00 0.00 62 1009.6
20260505030215 63 211 0.0 1.7 0.00 0.00 0.00 62 1009.5
20260505025658 63 170 0.0 1.7 0.00 0.00 0.00 61 1009.5
20260505025425 64 169 0.0 1.7 0.00 0.00 0.00 61 1009.4
20260505024638 64 182 0.0 1.7 0.00 0.00 0.00 60 1009.4
20260505024132 64 153 0.0 1.7 0.00 0.00 0.00 59 1009.4
20260505023631 64 154 0.0 1.7 0.00 0.00 0.00 58 1009.3
20260505023119 64 159 0.0 0.9 0.00 0.00 0.00 57 1009.4
20260505022847 64 161 0.0 0.9 0.00 0.00 0.00 56 1009.4
20260505022338 64 159 0.0 0.9 0.00 0.00 0.00 55 1009.4
20260505021603 65 157 0.0 0.9 0.00 0.00 0.00 54 1009.4
20260505021057 65 154 0.0 1.7 0.00 0.00 0.00 52 1009.4
20260505020602 65 167 0.0 0.9 0.00 0.00 0.00 50 1009.4
20260505020553 65 151 0.0 1.7 0.00 0.00 0.00 51 1009.4
20260505015752 65 158 0.0 0.9 0.00 0.00 0.00 49 1009.5
20260505015020 66 160 0.0 0.9 0.00 0.00 0.00 49 1009.5
20260505014459 66 154 0.0 0.9 0.00 0.00 0.00 48 1009.4
20260505013955 66 146 0.0 0.9 0.00 0.00 0.00 48 1009.4
20260505013432 66 126 0.0 0.9 0.00 0.00 0.00 48 1009.4
20260505012855 66 181 0.0 0.0 0.00 0.00 0.00 47 1009.4
20260505012353 66 181 0.0 0.0 0.00 0.00 0.00 47 1009.4
20260505011849 67 181 0.0 0.0 0.00 0.00 0.00 47 1009.3
20260505011339 67 184 0.0 0.9 0.00 0.00 0.00 46 1009.2
20260505011048 67 182 0.0 0.9 0.00 0.00 0.00 46 1009.1
20260505010305 67 204 0.0 0.0 0.00 0.00 0.00 45 1009.1
20260505005810 67 179 0.0 0.9 0.00 0.00 0.00 44 1009.0
20260505005301 67 174 0.0 6.1 0.00 0.00 0.00 43 1008.9
20260505004801 67 190 0.0 6.1 0.00 0.00 0.00 42 1008.9
20260505004529 68 161 0.0 0.9 0.00 0.00 0.00 42 1008.9
20260505003754 68 161 0.0 0.9 0.00 0.00 0.00 41 1008.8
20260505003255 68 173 0.0 0.9 0.00 0.00 0.00 41 1008.8
20260505003024 68 165 0.0 0.0 0.00 0.00 0.00 40 1008.9
20260505002528 69 165 0.0 0.0 0.00 0.00 0.00 40 1008.9
20260505002024 69 164 0.0 0.0 0.00 0.00 0.00 39 1009.0
20260505001517 69 163 0.0 0.0 0.00 0.00 0.00 38 1009.0
20260505000748 70 152 0.0 0.0 0.00 0.00 0.00 38 1009.0
20260505000223 70 150 0.0 0.0 0.00 0.00 0.00 38 1009.0
20260505000211 71 150 0.0 0.0 0.00 0.00 0.00 37 1008.9
20260504235434 71 185 0.0 0.9 0.00 0.00 0.00 37 1009.0
20260504234703 71 186 0.0 1.7 0.00 0.00 0.00 36 1009.0
20260504234206 71 195 0.0 8.7 0.00 0.00 0.00 36 1009.0
20260504233937 72 196 0.9 11.3 0.00 0.00 0.00 36 1009.0
20260504233202 72 182 0.0 11.3 0.00 0.00 0.00 35 1009.0
20260504232703 72 173 0.0 7.8 0.00 0.00 0.00 35 1008.9
20260504232157 73 179 0.9 7.8 0.00 0.00 0.00 35 1008.9
20260504231656 73 184 0.9 7.8 0.00 0.00 0.00 35 1008.8
20260504231427 73 177 0.9 7.8 0.00 0.00 0.00 35 1008.8
20260504230926 74 169 0.0 2.6 0.00 0.00 0.00 35 1008.7
20260504230157 74 202 0.9 7.8 0.00 0.00 0.00 35 1008.7
20260504225648 74 157 0.9 7.8 0.00 0.00 0.00 34 1008.8
20260504225147 74 163 0.0 2.6 0.00 0.00 0.00 35 1008.7
20260504224656 74 171 1.7 9.6 0.00 0.00 0.00 34 1008.7
20260504224647 74 183 0.9 9.6 0.00 0.00 0.00 34 1008.7
20260504223643 75 217 0.9 7.8 0.00 0.00 0.00 33 1008.7
20260504223135 75 173 0.9 7.8 0.00 0.00 0.00 33 1008.7
20260504222635 75 173 0.9 8.7 0.00 0.00 0.00 33 1008.6
20260504222133 75 232 0.9 8.7 0.00 0.00 0.00 33 1008.6
20260504221633 76 219 0.9 7.0 0.00 0.00 0.00 32 1008.5
20260504221133 76 164 0.9 9.6 0.00 0.00 0.00 32 1008.7
20260504220630 76 150 1.7 10.4 0.00 0.00 0.00 32 1008.6
20260504220125 76 258 1.7 10.4 0.00 0.00 0.00 31 1008.5
20260504215624 76 160 1.7 7.8 0.00 0.00 0.00 31 1008.5
20260504215122 76 173 0.9 10.4 0.00 0.00 0.00 31 1008.7
20260504214622 76 188 1.7 10.4 0.00 0.00 0.00 31 1008.7
20260504214115 76 190 2.6 13.0 0.00 0.00 0.00 31 1008.7
20260504213615 76 213 2.6 13.0 0.00 0.00 0.00 31 1008.8
20260504213115 76 192 1.7 8.7 0.00 0.00 0.00 32 1008.8
20260504212614 76 158 0.9 7.8 0.00 0.00 0.00 32 1008.8
20260504212114 75 241 1.7 9.6 0.00 0.00 0.00 31 1008.8
20260504211608 75 163 1.7 9.6 0.00 0.00 0.00 31 1008.8
20260504211105 75 273 3.5 10.4 0.00 0.00 0.00 32 1008.8
20260504210604 75 246 2.6 10.4 0.00 0.00 0.00 30 1008.8
20260504210336 75 211 0.9 6.1 0.00 0.00 0.00 33 1008.8
20260504205605 75 216 1.7 10.4 0.00 0.00 0.00 33 1008.9
20260504205103 75 274 1.7 10.4 0.00 0.00 0.00 31 1008.9
20260504204604 75 232 0.9 7.8 0.00 0.00 0.00 31 1009.0
20260504204053 75 240 1.7 8.7 0.00 0.00 0.00 31 1009.0
20260504203542 75 176 2.6 11.3 0.00 0.00 0.00 31 1009.1
20260504203038 75 193 1.7 11.3 0.00 0.00 0.00 31 1009.0
20260504202539 75 153 1.7 9.6 0.00 0.00 0.00 31 1009.3
20260504202038 75 217 0.9 9.6 0.00 0.00 0.00 30 1009.2
20260504201535 75 215 1.7 9.6 0.00 0.00 0.00 32 1009.2
20260504201030 74 221 3.5 10.4 0.00 0.00 0.00 31 1009.3
20260504200526 75 251 2.6 10.4 0.00 0.00 0.00 31 1009.3
20260504200027 75 255 1.7 8.7 0.00 0.00 0.00 32 1009.3
20260504195525 74 238 2.6 8.7 0.00 0.00 0.00 31 1009.3
20260504195024 74 248 1.7 8.7 0.00 0.00 0.00 31 1009.4
20260504194525 75 274 1.7 8.7 0.00 0.00 0.00 32 1009.4
20260504194023 75 252 2.6 9.6 0.00 0.00 0.00 32 1009.7
20260504193522 74 240 1.7 9.6 0.00 0.00 0.00 31 1009.6
20260504193022 74 281 0.9 6.1 0.00 0.00 0.00 32 1009.7
20260504192522 74 219 0.9 4.3 0.00 0.00 0.00 30 1009.7
20260504192011 75 275 0.9 4.3 0.00 0.00 0.00 30 1009.9
20260504191505 74 182 2.6 9.6 0.00 0.00 0.00 31 1009.9
20260504191003 74 172 3.5 12.2 0.00 0.00 0.00 29 1009.9
20260504190735 74 252 2.6 14.8 0.00 0.00 0.00 31 1009.9
20260504190002 74 290 2.6 14.8 0.00 0.00 0.00 31 1010.0
20260504185512 73 212 1.7 9.6 0.00 0.00 0.00 31 1010.1
20260504185501 74 171 2.6 9.6 0.00 0.00 0.00 31 1010.0
20260504184733 74 299 1.7 9.6 0.00 0.00 0.00 30 1010.2
20260504184227 73 229 1.7 9.6 0.00 0.00 0.00 32 1010.2
20260504183456 74 223 2.6 9.6 0.00 0.00 0.00 30 1010.2
20260504182954 74 254 2.6 7.8 0.00 0.00 0.00 30 1010.3
20260504182454 73 219 1.7 7.8 0.00 0.00 0.00 31 1010.3
20260504181954 73 252 1.7 6.1 0.00 0.00 0.00 32 1010.5
20260504181452 73 304 1.7 6.1 0.00 0.00 0.00 29 1010.7
20260504180950 73 252 1.7 6.1 0.00 0.00 0.00 31 1010.6
20260504180440 73 254 0.9 6.1 0.00 0.00 0.00 30 1010.7
20260504175929 73 255 0.9 4.3 0.00 0.00 0.00 30 1010.8
20260504175427 72 309 0.9 8.7 0.00 0.00 0.00 32 1010.8
20260504174922 72 278 1.7 12.2 0.00 0.00 0.00 29 1010.8
20260504174652 72 236 1.7 12.2 0.00 0.00 0.00 32 1010.9
20260504174156 73 215 0.9 6.1 0.00 0.00 0.00 33 1011.0
20260504173414 72 258 0.9 4.3 0.00 0.00 0.00 32 1011.0
20260504173143 72 302 1.7 5.2 0.00 0.00 0.00 32 1011.1
20260504172413 72 284 1.7 7.8 0.00 0.00 0.00 31 1011.2
20260504171916 72 265 1.7 7.8 0.00 0.00 0.00 33 1011.3
20260504171413 71 306 0.9 6.1 0.00 0.00 0.00 31 1011.4
20260504170912 71 283 0.9 8.7 0.00 0.00 0.00 31 1011.5
20260504170409 72 280 1.7 8.7 0.00 0.00 0.00 31 1011.6
20260504160353 69 204 1.7 13.0 0.00 0.00 0.00 36 1012.0
20260504150832 67 229 0.9 4.3 0.00 0.00 0.00 44 1012.4
20260504150331 67 236 1.7 6.1 0.00 0.00 0.00 41 1012.4
20260504141251 64 180 1.7 10.4 0.00 0.00 0.00 50 1012.7
20260504140749 64 213 1.7 6.1 0.00 0.00 0.00 52 1012.8
20260504140250 64 229 1.7 8.7 0.00 0.00 0.00 52 1012.8
20260504130742 61 225 1.7 8.7 0.00 0.00 0.00 65 1013.3
20260504130240 60 204 0.9 8.7 0.00 0.00 0.00 64 1013.3
20260504120222 55 174 0.0 2.6 0.00 0.00 0.00 81 1013.7
20260504110133 52 208 0.0 3.5 0.00 0.00 0.00 83 1014.0
20260504100542 51 225 0.0 2.6 0.00 0.00 0.00 82 1014.0
20260504081851 49 171 0.9 7.8 0.00 0.00 0.00 79 1014.0
20260504081351 49 168 0.9 4.3 0.00 0.00 0.00 78 1013.9
20260504080848 49 172 0.9 4.3 0.00 0.00 0.00 78 1014.0
20260504080617 48 168 0.9 4.3 0.00 0.00 0.00 78 1014.0
20260504080111 48 169 0.9 4.3 0.00 0.00 0.00 77 1014.0
20260504060128 49 207 0.0 0.0 0.00 0.00 0.00 62 1013.9
20260504050457 48 221 0.0 0.0 0.00 0.00 0.00 62 1014.1
20260504045945 48 221 0.0 0.0 0.00 0.00 0.00 62 1014.1
20260504045428 48 221 0.0 0.0 0.00 0.00 0.00 61 1014.2
20260504044907 48 224 0.0 0.0 0.00 0.00 0.00 62 1014.1
20260504044639 47 226 0.0 0.0 0.00 0.00 0.00 62 1014.0
20260504043901 47 226 0.0 0.0 0.00 0.00 0.00 62 1014.0
20260504043351 47 226 0.0 0.0 0.00 0.00 0.00 62 1013.9
20260504043109 47 226 0.0 0.0 0.00 0.00 0.00 62 1013.9
20260504042336 47 226 0.0 0.0 0.00 0.00 0.00 62 1013.9
20260504041817 47 226 0.0 0.0 0.00 0.00 0.00 62 1013.9
20260504041312 47 227 0.0 0.0 0.00 0.00 0.00 62 1013.8
20260504040808 47 226 0.0 0.0 0.00 0.00 0.00 61 1013.7
20260504040310 47 227 0.0 0.0 0.00 0.00 0.00 61 1013.7
20260504040305 47 227 0.0 0.0 0.00 0.00 0.00 61 1013.6